[[{"header":{"parameterUnit":"m.s-1","parameterCategory":1,"la1":30.2991,"la2":30.254,"lo1":-89.0895,"lo2":-89.0444,"dy":0.0017,"dx":0.0017,"nx":28,"ny":28,"refTime":"2024-03-30T03:00:00:Z","depth":0,"parameterNumber":2,"parameterNumberName":"U-component_of_WINDS"},"data":[0,0,0,0,0,0,0,0,0,0,0,0,0,0,0,0,0,0,0,0,0,0,0,0,0,0,0,0,0,0,0,0,0,0,0,0,0,0,0,0,0,0,0,0,0,0,0,0,0,0,0,0,0,0,0,0,0,0,-1.4044,-1.4045,0,-1.4085,-1.4086,-1.4086,-1.4052,-1.4051,-1.405,-1.4048,-1.409,-1.4092,-1.4095,0,0,0,0,0,0,0,0,0,0,0,0,0,-1.3937,-1.3939,-1.4044,-1.4045,-1.4045,-1.4085,-1.4086,-1.4086,-1.4053,-1.4051,-1.4049,-1.4048,-1.4089,-1.4092,-1.4095,0,0,0,0,0,0,0,0,0,0,0,0,0,-1.3982,-1.394,-1.4044,-1.4033,-1.4033,-1.4085,-1.4086,-1.4086,-1.4053,-1.4051,-1.4049,-1.4047,-1.4088,-1.4092,-1.4096,-1.4161,0,0,-1.4107,-1.4108,0,0,0,0,0,0,0,0,-1.3979,-1.3985,-1.4034,-1.4034,-1.4034,-1.4062,-1.4063,-1.4111,-1.4054,-1.4045,-1.4048,-1.4046,-1.4082,-1.4086,-1.4099,-1.4163,-1.4165,-1.4107,-1.4109,-1.4111,-1.4112,0,0,0,0,0,0,0,-1.3976,-1.3984,-1.4061,-1.4035,-1.4035,-1.4026,-1.403,-1.4072,-1.4075,-1.4046,-1.4044,-1.4049,-1.4082,-1.4095,-1.4099,-1.4165,-1.4107,-1.411,-1.4112,-1.4114,-1.4284,-1.4287,0,0,0,0,0,0,-1.3974,-1.3981,-1.4059,-1.4062,-1.4001,-1.403,-1.4035,-1.4055,-1.4075,-1.4076,-1.4051,-1.4047,-1.409,-1.4095,-1.4101,-1.4178,-1.4111,-1.4114,-1.4116,-1.4282,-1.4285,-1.4287,0,0,0,0,0,0,-1.3972,-1.3981,-1.4058,-1.4021,-1.403,-1.4034,-1.4057,-1.4057,-1.407,-1.4078,-1.4079,-1.4064,-1.4089,-1.4096,-1.4146,-1.4179,-1.4116,-1.4119,-1.4279,-1.4283,-1.4286,-1.4333,0,0,0,0,0,0,-1.3969,-1.3981,-1.4005,-1.4022,-1.4032,-1.4102,-1.4059,-1.4059,-1.4077,-1.4072,-1.4091,-1.4092,-1.4087,-1.4141,-1.415,-1.4183,-1.4122,-1.4276,-1.4281,-1.4285,-1.4329,-1.4338,-1.4346,0,0,0,0,0,-1.3965,-1.4017,-1.4007,-1.4016,-1.4063,-1.4104,-1.411,-1.4104,-1.4079,-1.4104,-1.4109,-1.4091,-1.4174,-1.4146,-1.4156,-1.4191,-1.4274,-1.428,-1.4285,-1.4325,-1.4336,-1.4345,0,0,0,0,0,0,-1.4005,-1.4019,-1.4008,-1.4067,-1.4084,-1.4098,-1.4129,-1.4116,-1.4141,-1.4136,-1.4128,-1.4132,-1.4185,-1.4193,-1.4162,-1.4255,-1.422,-1.4228,-1.4247,-1.4258,-1.4266,-1.4263,-1.4125,0,0,0,0,0,-1.402,-1.4052,-1.4063,-1.4114,-1.4124,-1.4125,-1.4143,-1.4137,-1.4155,-1.4162,-1.4171,-1.4189,-1.4219,-1.4239,-1.4267,-1.433,-1.4333,-1.4359,-1.4367,-1.4374,-1.438,-1.4413,-1.4425,-1.4305,-1.4305,-1.4304,0,0,-1.4052,-1.4064,-1.4085,-1.4122,-1.4135,-1.4169,-1.4132,-1.4169,-1.4193,-1.4168,-1.4215,-1.4223,-1.4243,-1.4299,-1.4325,-1.4308,-1.4414,-1.4381,-1.4386,-1.4389,-1.442,-1.4431,-1.4441,-1.4308,-1.4308,-1.4307,0,0,-1.4128,-1.4141,-1.4184,-1.4198,-1.4218,-1.4219,-1.423,-1.4246,-1.425,-1.4298,-1.4279,-1.4309,-1.4361,-1.4375,-1.439,-1.4472,-1.4456,-1.4481,-1.4525,-1.4558,-1.4567,-1.4575,-1.4604,-1.4614,-1.4488,-1.4488,-1.4488,0,-1.4166,-1.4215,-1.4208,-1.4246,-1.4263,-1.4242,-1.4286,-1.43,-1.4328,-1.434,-1.4321,-1.4386,-1.4398,-1.4457,-1.4477,-1.449,-1.4501,-1.4479,-1.4566,-1.4575,-1.4582,-1.4609,-1.462,-1.4491,-1.4491,-1.449,-1.449,0,-1.426,-1.4295,-1.4327,-1.4355,-1.4376,-1.4417,-1.4416,-1.4438,-1.443,-1.4433,-1.4482,-1.4496,-1.4526,-1.454,-1.4533,-1.4599,-1.4587,-1.4568,-1.4532,-1.4597,-1.4622,-1.4632,-1.4495,-1.4494,-1.4493,-1.4492,0,0,-1.436,-1.4384,-1.4396,-1.4409,-1.443,-1.4457,-1.4497,-1.4527,-1.4545,-1.4566,-1.4599,-1.4644,-1.4625,-1.4642,-1.4636,-1.4665,-1.4728,-1.4642,-1.4642,-1.4656,-1.4801,-1.4815,-1.4827,-1.4718,-1.472,-1.4722,-1.4799,0,-1.4436,-1.4506,-1.4501,-1.4566,-1.4598,-1.4579,-1.4614,-1.463,-1.4634,-1.4662,-1.4666,-1.4698,-1.4672,-1.4682,-1.4709,-1.4715,-1.4757,-1.4709,-1.4748,-1.475,-1.4743,-1.484,-1.4855,-1.4927,-1.4808,-1.481,-1.4811,0,-1.4534,-1.4558,-1.4626,-1.4643,-1.4656,-1.4687,-1.4714,-1.4741,-1.476,-1.476,-1.4779,-1.4769,-1.4809,-1.4774,-1.4829,-1.4797,-1.4813,-1.4818,-1.4821,-1.4823,-1.4784,-1.4844,-1.495,-1.496,-1.4827,-1.4826,-1.4825,0,-1.4599,-1.4649,-1.4696,-1.4707,-1.4728,-1.475,-1.476,-1.4777,-1.4795,-1.4818,-1.483,-1.4858,-1.4874,-1.4896,-1.4893,-1.4868,-1.4949,-1.4914,-1.495,-1.495,-1.4967,-1.4966,-1.5076,-1.498,-1.4979,-1.4979,-1.4979,0,-1.4684,-1.4726,-1.4726,-1.4755,-1.4802,-1.4796,-1.4843,-1.485,-1.4865,-1.4895,-1.488,-1.4909,-1.4904,-1.4933,-1.4931,-1.4977,-1.4984,-1.4986,-1.4985,-1.4986,-1.4986,-1.4996,-1.499,-1.4982,-1.4981,-1.4981,-1.498,0,-1.4764,-1.4765,-1.4816,-1.4831,-1.4836,-1.487,-1.4883,-1.491,-1.4914,-1.4952,-1.496,-1.4965,-1.4998,-1.4998,-1.5036,-1.5035,-1.509,-1.5084,-1.5084,-1.5082,-1.5118,-1.5114,-1.5237,-1.5252,-1.5147,-1.5148,-1.5149,0,-1.4817,-1.4849,-1.4868,-1.4887,-1.4898,-1.4929,-1.4948,-1.4944,-1.4964,-1.4988,-1.5012,-1.5044,-1.5068,-1.5122,-1.5129,-1.5157,-1.5151,-1.5192,-1.5155,-1.5156,-1.515,-1.5148,-1.5151,-1.5199,-1.52,-1.5201,-1.5202,0,-1.4911,-1.491,-1.4938,-1.4966,-1.4988,-1.501,-1.503,-1.5046,-1.5044,-1.5068,-1.5101,-1.512,-1.5159,-1.519,-1.5217,-1.5227,-1.5214,-1.5213,-1.5223,-1.5225,-1.5223,-1.5223,-1.5102,-1.521,-1.5209,-1.5209,-1.5208,-1.5208,-1.4979,-1.5007,-1.5024,-1.5055,-1.507,-1.5089,-1.5115,-1.5122,-1.515,-1.518,-1.5177,-1.5214,-1.5232,-1.5267,-1.528,-1.5308,-1.5294,-1.5308,-1.5312,-1.5315,-1.5319,-1.5219,-1.5314,-1.5313,-1.5313,-1.5313,-1.5313,0,-1.5071,-1.5082,-1.5111,-1.5139,-1.5163,-1.5149,-1.5171,-1.5192,-1.5225,-1.5243,-1.5268,-1.5306,-1.5336,-1.5346,-1.5375,-1.5396,-1.5391,-1.5404,-1.5402,-1.5404,-1.533,-1.5318,-1.5408,-1.5408,-1.5408,-1.5408,-1.5407,-1.5407,-1.5122,-1.5168,-1.5169,-1.5222,-1.5233,-1.5269,-1.5282,-1.53,-1.5314,-1.5357,-1.5382,-1.5388,-1.5403,-1.5433,-1.546,-1.5462,-1.5473,-1.5489,-1.5488,-1.5419,-1.5409,-1.54,-1.5389,-1.5491,-1.5491,-1.5559,-1.556,-1.556]},{"header":{"parameterUnit":"m.s-1","parameterCategory":1,"la1":30.2991,"la2":30.254,"lo1":-89.0895,"lo2":-89.0444,"dy":0.0017,"dx":0.0017,"nx":28,"ny":28,"refTime":"2024-03-30T03:00:00:Z","depth":0,"parameterNumber":3,"parameterNumberName":"V-component_of_WINDS"},"data":[0,0,0,0,0,0,0,0,0,0,0,0,0,0,0,0,0,0,0,0,0,0,0,0,0,0,0,0,0,0,0,0,0,0,0,0,0,0,0,0,0,0,0,0,0,0,0,0,0,0,0,0,0,0,0,0,0,0,2.0427,2.0427,0,2.044,2.044,2.044,2.0509,2.0511,2.0512,2.0514,2.0523,2.0522,2.0521,0,0,0,0,0,0,0,0,0,0,0,0,0,2.0458,2.0457,2.0427,2.0427,2.0427,2.044,2.044,2.044,2.0509,2.0511,2.0513,2.0515,2.0524,2.0522,2.0521,0,0,0,0,0,0,0,0,0,0,0,0,0,2.0455,2.0457,2.0427,2.0463,2.0466,2.044,2.044,2.044,2.0508,2.0511,2.0513,2.0516,2.0524,2.0522,2.052,2.0459,0,0,2.0514,2.0514,0,0,0,0,0,0,0,0,2.0455,2.0454,2.0457,2.046,2.0464,2.0476,2.0455,2.0446,2.0508,2.0492,2.0514,2.0517,2.0505,2.0505,2.0502,2.0459,2.046,2.0514,2.0513,2.0512,2.0512,0,0,0,0,0,0,0,2.0455,2.0453,2.0432,2.0457,2.0462,2.0478,2.048,2.0453,2.0484,2.0494,2.0499,2.05,2.0507,2.0503,2.0502,2.046,2.0514,2.0513,2.0511,2.0511,2.0369,2.0367,0,0,0,0,0,0,2.0451,2.0453,2.0431,2.0432,2.0466,2.0475,2.0478,2.0469,2.0485,2.049,2.0498,2.0503,2.0506,2.0505,2.0503,2.0434,2.0512,2.051,2.0509,2.0372,2.0369,2.0366,0,0,0,0,0,0,2.0451,2.0448,2.0431,2.0444,2.0443,2.0472,2.0462,2.0468,2.0465,2.0488,2.0493,2.0488,2.0507,2.0506,2.047,2.0435,2.051,2.0508,2.0375,2.0371,2.0367,2.0293,0,0,0,0,0,0,2.0452,2.0448,2.0425,2.0443,2.0442,2.0398,2.046,2.0467,2.0462,2.0469,2.048,2.0485,2.0509,2.0473,2.0468,2.0433,2.0506,2.0378,2.0373,2.0369,2.0299,2.0287,2.0277,0,0,0,0,0,2.0453,2.0402,2.0424,2.0421,2.0415,2.0396,2.0395,2.0426,2.0458,2.0436,2.0451,2.0484,2.0439,2.0468,2.0464,2.0428,2.0381,2.0375,2.0369,2.0303,2.0289,2.0277,0,0,0,0,0,0,2.0377,2.0405,2.0429,2.0384,2.0387,2.0408,2.038,2.0409,2.0403,2.0409,2.0446,2.0448,2.0407,2.0414,2.0446,2.037,2.0416,2.0409,2.0367,2.0354,2.0343,2.0343,2.0505,0,0,0,0,0,2.0356,2.034,2.0364,2.0321,2.0322,2.0351,2.0344,2.0367,2.0372,2.0373,2.0386,2.0388,2.0374,2.0364,2.0353,2.03,2.0304,2.0273,2.0262,2.0253,2.0247,2.0221,2.0208,2.0347,2.0347,2.0347,0,0,2.031,2.0324,2.0311,2.0307,2.0312,2.0294,2.0351,2.0329,2.0316,2.0369,2.0337,2.0346,2.0351,2.0307,2.0288,2.0311,2.0209,2.0246,2.0238,2.0237,2.0213,2.02,2.0188,2.0343,2.0344,2.0344,0,0,2.0219,2.0227,2.0193,2.0198,2.0207,2.0226,2.0218,2.0235,2.0244,2.0212,2.0253,2.0237,2.0212,2.0215,2.0213,2.0124,2.0155,2.0119,2.0062,2.0036,2.0025,2.0016,1.9985,1.9974,2.0112,2.0112,2.0112,0,2.0161,2.0136,2.0172,2.0148,2.0145,2.0195,2.0161,2.0163,2.0166,2.0163,2.019,2.0162,2.0168,2.0126,2.0105,2.0101,2.0093,2.0118,2.0024,2.0015,2.0007,1.9978,1.9966,2.0108,2.0108,2.0109,2.0109,0,2.0065,2.0047,2.0019,2.0024,2.0018,1.9989,2.0019,2.0009,2.0033,2.0049,2.0017,2.0027,2.002,2.0011,2.0034,1.9972,1.9987,2.0018,2.0065,1.9989,1.9962,1.9952,2.0102,2.0103,2.0105,2.0106,0,0,1.9926,1.9952,1.9941,1.9945,1.9959,1.9945,1.9918,1.9913,1.9904,1.9904,1.9883,1.9862,1.9892,1.989,1.9913,1.989,1.9821,1.9925,1.9925,1.9906,1.9756,1.9733,1.9719,1.9841,1.9839,1.9838,1.9756,0,1.9839,1.9797,1.9829,1.978,1.9765,1.9813,1.9789,1.9795,1.981,1.9798,1.9814,1.98,1.9839,1.9838,1.9818,1.9834,1.9791,1.984,1.9822,1.9821,1.982,1.9706,1.9681,1.9603,1.9745,1.9744,1.9742,0,1.9733,1.9732,1.9682,1.9701,1.9696,1.9675,1.9673,1.9661,1.9669,1.9681,1.968,1.9709,1.9684,1.973,1.9696,1.9728,1.9723,1.9729,1.9727,1.9727,1.9777,1.9703,1.9578,1.9567,1.9726,1.9728,1.9729,0,1.9638,1.9623,1.9593,1.9594,1.9615,1.9599,1.9607,1.9617,1.9612,1.961,1.9608,1.9602,1.9599,1.9594,1.9621,1.9651,1.9584,1.9631,1.9594,1.9593,1.9577,1.9578,1.9451,1.9572,1.9572,1.9572,1.9573,0,1.9538,1.9506,1.9551,1.9532,1.9498,1.9534,1.9499,1.9512,1.952,1.9505,1.9544,1.9528,1.9565,1.9552,1.9573,1.9543,1.9541,1.955,1.9556,1.9547,1.9546,1.9544,1.9551,1.9569,1.957,1.9571,1.9571,0,1.9426,1.9455,1.9425,1.9448,1.9453,1.9427,1.9446,1.9429,1.9448,1.9427,1.9424,1.9452,1.944,1.9467,1.9457,1.9472,1.9429,1.9443,1.9427,1.9431,1.9393,1.9396,1.9261,1.9245,1.9375,1.9374,1.9373,0,1.9362,1.9339,1.936,1.9353,1.936,1.9347,1.9344,1.9379,1.9373,1.9381,1.9363,1.9354,1.9349,1.9327,1.9346,1.934,1.9354,1.9307,1.9354,1.9346,1.9355,1.9357,1.9355,1.9298,1.9296,1.9295,1.9294,0,1.9244,1.926,1.9254,1.9253,1.9247,1.9248,1.9251,1.9242,1.928,1.9271,1.926,1.9256,1.9248,1.9239,1.9237,1.9244,1.9275,1.9279,1.9271,1.9261,1.9254,1.9259,1.9402,1.9282,1.9283,1.9284,1.9285,1.9285,1.9155,1.9137,1.9151,1.9143,1.9149,1.9151,1.9138,1.9155,1.9147,1.9144,1.9165,1.915,1.9159,1.916,1.9164,1.9152,1.9173,1.916,1.9157,1.9153,1.9148,1.9255,1.9152,1.9152,1.9152,1.9153,1.9153,0,1.9041,1.9052,1.9044,1.9049,1.9042,1.9074,1.9079,1.9071,1.9058,1.9065,1.906,1.9047,1.9039,1.9058,1.9053,1.904,1.9054,1.9038,1.9039,1.9041,1.9128,1.9137,1.9026,1.9027,1.9027,1.9027,1.9027,1.9027,1.8981,1.8954,1.8971,1.8947,1.8959,1.8946,1.8946,1.8948,1.8954,1.8939,1.8934,1.8947,1.8958,1.8955,1.8949,1.8955,1.8951,1.893,1.894,1.9022,1.9034,1.9046,1.9055,1.8929,1.8928,1.8854,1.8854,1.8853]}]]